Change the Weather History Date:

Saturday, September 28, 2013

  Actual Average Record
Temperature  
Mean Temperature 34 °F 37 °F  
Max Temperature 38 °F 43 °F 57 °F (1984)
Min Temperature 29 °F 32 °F 9 °F (1992)
Degree Days  
Heating Degree Days 31 28  
Month to date heating degree days 678 609  
Since 1 July heating degree days 1452 1473  
Cooling Degree Days 0    
Month to date cooling degree days 0  
Year to date cooling degree days 7  
Moisture  
Dew Point 25 °F    
Average Humidity 0    
Maximum Humidity 0    
Minimum Humidity 0    
Precipitation  
Precipitation T in 0.07 in 0.80 in (1948)
Month to date precipitation 1.98 2.32  
Year to date precipitation 15.09 12.77  
Snow  
Snow T in 0.10 in 1.60 in (1957)
Month to date snowfall 1.1 0.5  
Since 1 July snowfall 1.1 0.5  
Since 1 September snowfall 1.1 0.5  
Snow Depth 0.00 in    
Sea Level Pressure  
Sea Level Pressure 29.78 in    
Wind  
Wind Speed 9 mph (NW)    
Max Wind Speed 20 mph    
Max Gust Speed 24 mph    
Visibility 10 miles    
Events      
T = Trace of Precipitation, MM = Missing Value Source: NWS Daily Summary

Daily Weather History Graph

Daily Weather History Graph

Search for Another Location

Airport or City:

Trip Planner

Search our weather history database for the weather conditions in past years. The results will help you decide how hot, cold, wet, or windy it might be!

Date:

Astronomy

Sep. 28, 2013 Rise Set
Actual Time 9:03 AM AKDT 8:39 PM AKDT
Civil Twilight 8:15 AM AKDT 9:27 PM AKDT
Nautical Twilight 7:17 AM AKDT 10:24 PM AKDT
Astronomical Twilight 6:14 AM AKDT 11:27 PM AKDT
Moon 1:08 AM AKDT (9/28) 6:46 PM AKDT (9/28)
Length of Visible Light 13h 11m
Length of Day
11h 35m
Waning Crescent, 34% of the Moon is Illuminated
Sep 28
Waning Crescent
Oct 4
New
Oct 11
First Quarter
Oct 18
Full
Oct 26
Last Quarter

Hourly Weather History & Observations

Time (AKDT) Temp. Windchill Dew Point Humidity Pressure Visibility Wind Dir Wind Speed Gust Speed Precip Events Conditions
12:53 AM 32.0 °F - 27.0 °F 82% 29.69 in 10.0 mi Calm Calm - N/A   Scattered Clouds
1:53 AM 30.0 °F 24.1 °F 27.0 °F 88% 29.70 in 10.0 mi NW 5.8 mph - N/A   Scattered Clouds
2:53 AM 32.0 °F 24.8 °F 27.0 °F 82% 29.72 in 10.0 mi North 8.1 mph - N/A   Scattered Clouds
3:53 AM 32.0 °F 27.5 °F 26.1 °F 79% 29.72 in 10.0 mi North 4.6 mph - N/A   Scattered Clouds
4:53 AM 30.0 °F 24.1 °F 25.0 °F 82% 29.73 in 10.0 mi NNW 5.8 mph - N/A   Scattered Clouds
5:53 AM 30.0 °F 23.2 °F 25.0 °F 82% 29.74 in 10.0 mi NNW 6.9 mph - N/A   Mostly Cloudy
6:53 AM 30.9 °F 26.2 °F 25.0 °F 79% 29.74 in 10.0 mi NW 4.6 mph - N/A   Mostly Cloudy
7:53 AM 30.0 °F 26.5 °F 25.0 °F 82% 29.75 in 10.0 mi West 3.5 mph - N/A   Mostly Cloudy
8:53 AM 30.0 °F 26.5 °F 24.1 °F 79% 29.75 in 10.0 mi WNW 3.5 mph - N/A   Mostly Cloudy
9:53 AM 30.0 °F 23.2 °F 25.0 °F 82% 29.76 in 10.0 mi NW 6.9 mph - N/A   Mostly Cloudy
10:53 AM 33.1 °F 25.5 °F 26.1 °F 75% 29.77 in 10.0 mi NW 9.2 mph - N/A   Scattered Clouds
11:53 AM 36.0 °F 28.0 °F 24.1 °F 62% 29.77 in 10.0 mi NW 11.5 mph - N/A   Scattered Clouds
12:53 PM 36.0 °F 28.0 °F 21.9 °F 57% 29.78 in 10.0 mi NNW 11.5 mph - N/A   Mostly Cloudy
1:53 PM 37.0 °F 28.1 °F 21.9 °F 54% 29.78 in 10.0 mi NW 15.0 mph 23.0 mph N/A   Mostly Cloudy
2:53 PM 37.0 °F 27.4 °F 21.9 °F 54% 29.78 in 10.0 mi NW 17.3 mph - N/A   Mostly Cloudy
3:53 PM 37.9 °F 28.5 °F 21.9 °F 53% 29.79 in 10.0 mi NW 17.3 mph - N/A   Mostly Cloudy
4:53 PM 37.9 °F 30.0 °F 21.0 °F 51% 29.79 in 10.0 mi NW 12.7 mph - N/A   Mostly Cloudy
5:53 PM 37.9 °F 30.9 °F 24.1 °F 57% 29.81 in 10.0 mi NW 10.4 mph 17.3 mph N/A   Scattered Clouds
6:53 PM 36.0 °F 27.1 °F 26.1 °F 67% 29.81 in 10.0 mi NW 13.8 mph - N/A   Mostly Cloudy
7:53 PM 33.1 °F 26.1 °F 27.0 °F 78% 29.83 in 10.0 mi NW 8.1 mph - 0.00 in   Mostly Cloudy
8:53 PM 30.9 °F 22.2 °F 27.0 °F 85% 29.86 in 10.0 mi NW 10.4 mph - N/A   Mostly Cloudy
9:53 PM 30.9 °F 22.8 °F 24.1 °F 76% 29.87 in 10.0 mi NW 9.2 mph - N/A   Mostly Cloudy
10:53 PM 30.0 °F 23.2 °F 24.1 °F 79% 29.88 in 10.0 mi WNW 6.9 mph - N/A   Mostly Cloudy
11:53 PM 30.0 °F 24.1 °F 24.1 °F 79% 29.89 in 10.0 mi WNW 5.8 mph - N/A   Mostly Cloudy